Regional Weather Roundup
Issued by NWS

Home | Current Version | Previous Version | Text Only | Print | Product List | Glossary Off
Versions: 1 2 3 4 5 6 7 8 9 10 11 12 13 14 15 16 17 18 19 20 21 22 23 24 25 26 27 28 29 30 31 32 33 34 35 36 37 38 39 40 41 42 43 44 45 46 47 48 49 50

000
ASUS43 KDMX 081508
RWRIA

WEATHER ROUNDUP FOR IOWA
NATIONAL WEATHER SERVICE DES MOINES IA
900 AM CST MON FEB 08 2016

NOTE: "FAIR" INDICATES FEW OR NO CLOUDS BELOW 12,000 FEET WITH NO
SIGNIFICANT WEATHER AND/OR OBSTRUCTIONS TO VISIBILITY.

* - THESE STATIONS ARE NOT NWS STATIONS...THUS NOT UNDER NWS
QUALITY CONTROL.  THEY ALSO DO NOT REPORT WEATHER SUCH
AS PRECIPITATION OR FOG.

IAZ001>003-012>014-020>022-031>034-043>046-081600-
   NORTHWEST IOWA

CITY           SKY/WX    TMP DP  RH WIND       PRES   REMARKS
CARROLL *      SNOW      18  14  86 NW25G43   29.98R VSB 1/4 WCI  -1
CHEROKEE *     CLOUDY    18  14  86 N24G37    30.02R HAZE    WCI   0
DENISON *      RAIN      19  16  86 N31G39    29.99R VSB 1/4 WCI   0
LE MARS *      LGT SNOW  21  19  93 N23       30.08R WCI   5
ORANGE CITY *    N/A    N/A N/A N/A N23G29    30.04R
SHELDON *      LGT SNOW  16  12  86 N32G40    30.02R VSB 1   WCI  -5
SIOUX CITY     LGT SNOW  25  16  68 N35G40    30.07R WCI   7
SPENCER        HVY SNOW  14   9  80 NW29G41   29.99R VSB 1/4 WCI  -7
STORM LAKE *   SNOW      16  14  93 N36G53    29.98R VSB 1/4 WCI  -6
$$

IAZ055>058-069>071-079>083-090>094-081600-
   SOUTHWEST IOWA

CITY           SKY/WX    TMP DP  RH WIND       PRES   REMARKS
ATLANTIC *     SNOW      21  18  86 N26G32    30.02R VSB 1/2 WCI   4
AUDUBON *        N/A     18  14  86 N26G35    30.00R WCI  -1
CLARINDA *     MIX PCPN  25  21  86 N18       30.05R WCI  11
COUNCIL BLFS * FLURRIES  27  18  69 N29G37    30.03R WCI  11
CRESTON *      FLURRIES  19  12  73 NW29G51   29.97R WCI   1
HARLAN  *      LGT SNOW  21  18  86 N31G40    30.05R WCI   3
LAMONI         FLURRIES  21  12  68 NW29G41   29.95R WCI   3
RED OAK *      LGT SNOW  25  19  80 N22G33    30.04R WCI  10
SHENANDOAH *   CLOUDY    28  19  69 NW32G41   30.06R WCI  12
$$

IAZ047>049-059>061-072>074-084-081600-
   CENTRAL IOWA

CITY           SKY/WX    TMP DP  RH WIND       PRES   REMARKS
AMES           SNOW      15  10  80 N28G38    29.92R VSB 1/2 WCI  -5
ANKENY *       LGT SNOW  16  12  86 NW29G37   29.94R VSB 1   WCI  -4
BOONE *        LGT SNOW  16  10  79 NW21G30   29.91R VSB 3/4 WCI  -2
CHARITON *     LGT SNOW  18  12  79 NW22G40   29.92R WCI   0
DES MOINES     LGT SNOW  18  11  74 N26G45    29.94R VSB 3/4 WCI  -1
GRINNELL*      FLURRIES  16  10  79 NW18G33   29.88R WCI  -1
KNOXVILLE *    LGT SNOW  18   9  68 NW22G33   29.90R WCI   0
MARSHALLTOWN   LGT SNOW  14   9  80 NW24      29.88R WCI  -5
NEWTON *       LGT SNOW  16  10  79 NW28G35   29.90R WCI  -4
PELLA *        LGT SNOW  16  10  79 NW26G32   29.92R WCI  -3
$$

IAZ004>006-015-016-023>025-035-036-081600-
   NORTH CENTRAL IOWA

CITY           SKY/WX    TMP DP  RH WIND       PRES   REMARKS
ALGONA *       PTSUNNY   14   9  79 N28G41    29.91R HAZE    WCI  -6
CLARION *      PTSUNNY   12   7  79 N35G44    29.90R HAZE    WCI -10
ESTHERVILLE    FOG       11   8  88 N37G51    29.96R VSB 1/4 WCI -13
FORT DODGE *   CLOUDY    14   7  73 N17G31    29.95R WCI  -3
MASON CITY     CLOUDY    11   6  81 NW29G39   29.87R BLWGSNOWWCI -11
FOREST CITY *  LGT SNOW  12   9  85 NW28G39   29.87R VSB 3/4 WCI  -9
WEBSTER CITY * SNOW      14  10  85 NW31G45   29.90R VSB 0   WCI  -7
IOWA FALLS *     N/A     14  10  83 NW25G33   29.89R WCI  -5
$$

IAZ007>011-017>019-026>030-037>042-050>054-066-081600-
   NORTHEAST IOWA

CITY           SKY/WX    TMP DP  RH WIND       PRES   REMARKS
CEDAR RAPIDS   FLURRIES  16  11  80 NW24G30   29.81R WCI  -2
CHARLES CITY * LGT SNOW  12  10  92 NW22G31   29.83R VSB 3/4 WCI  -7
CLINTON *      FLURRIES  19  15  84 NW20      29.75R WCI   3
DECORAH *      CLOUDY    16   9  73 NW22G28   29.76R WCI  -2
DUBUQUE        CLOUDY    17  10  74 NW16      29.73R WCI   2
MONTICELLO *   CLOUDY    18  12  79 NW14      29.78R WCI   4
OELWEIN *      LGT SNOW  14  10  85 NW24      29.80R WCI  -5
WATERLOO       LGT SNOW  13   8  81 NW24G36   29.84R WCI  -7
$$

IAZ064-065-067-068-078-081600-
   EAST CENTRAL IOWA

CITY           SKY/WX    TMP DP  RH WIND       PRES   REMARKS
DAVENPORT      LGT SNOW  19  12  74 NW16      29.77R WCI   4
IOWA CITY      FLURRIES  18  10  71 NW20G29   29.84R WCI   2
MT. PLEASANT * FLURRIES  21  14  73 NW14G23   29.84R WCI   8
MUSCATINE *    CLOUDY    19  12  73 NW20      29.83R WCI   4
QUAD CITIES    LGT SNOW  20  12  71 NW16G23   29.77S WCI   6
$$

IAZ062-063-075>077-085>089-095>099-081600-
   SOUTHEAST IOWA

CITY           SKY/WX    TMP DP  RH WIND       PRES   REMARKS
BURLINGTON     CLOUDY    19  13  77 NW16G26   29.82R WCI   4
FAIRFIELD *    FLURRIES  18   9  68 NW23G35   29.86R WCI   0
FORT MADISON * FLURRIES  18  12  79 NW23G29   29.84R WCI   0
KEOKUK *       LGT SNOW  21  14  73 NW17G23   29.84R WCI   7
OSKALOOSA *    FLURRIES  16  10  79 NW24G36   29.89R WCI  -3
CENTERVILLE *    N/A    N/A N/A N/A MISG        N/A
OTTUMWA        LGT SNOW  16  11  80 NW29G38   29.88R WCI  -4
WASHINGTON *   FLURRIES  18  12  79 NW18G28   29.86R WCI   2
$$

ABBREVIATIONS USED IN REMARKS
   TC - TEMPERATURES IN CELSIUS
  WCI - WIND CHILL INDEX
   HX - HEAT INDEX
  VSB - VISIBILITY
$$





USA.gov is the U.S. government's official web portal to all federal, state and local government web resources and services.